• în Republica Moldova
  • Lista ţărilor
  • Pe 7 zile
  • Temperatura apei
  • Hartă satelitară
  • Meteo pe hartă
  • Widget-uri
  • user-avatar
    Intrare

    Meteo pe oră la Prutz

    Astăzi, 31 Martie, Vineri

    Timp Temperatura Precipitaţii Vânt Presiune Umiditate
    00:00 +3°C° 0 mm 2 m/s 637 mmHg 92%
    01:00 +3°C° 0 mm 2 m/s 637 mmHg 92%
    02:00 +3°C° 0 mm 2 m/s 636 mmHg 92%
    03:00 +2°C° 0 mm 2 m/s 636 mmHg 92%
    04:00 +2°C° 0 mm 2 m/s 636 mmHg 92%
    05:00 +3°C° 0 mm 2 m/s 636 mmHg 91%
    06:00 +3°C° 0 mm 2 m/s 636 mmHg 91%
    07:00 +3°C° 0 mm 2 m/s 636 mmHg 90%
    08:00 +6°C° 0 mm 2 m/s 636 mmHg 84%
    09:00 +8°C° 0 mm 2 m/s 637 mmHg 78%
    10:00 +10°C° 0 mm 2 m/s 637 mmHg 72%
    11:00 +12°C° 0 mm 2 m/s 637 mmHg 68%
    12:00 +13°C° 0 mm 2 m/s 637 mmHg 64%
    13:00 +14°C° 0 mm 2 m/s 637 mmHg 60%
    14:00 +14°C° 0 mm 2 m/s 637 mmHg 62%
    15:00 +13°C° 0 mm 2 m/s 636 mmHg 63%
    16:00 +13°C° 0 mm 2 m/s 636 mmHg 65%
    17:00 +11°C° 0,2 mm 1 m/s 635 mmHg 74%
    18:00 +8°C° 0,2 mm 1 m/s 634 mmHg 84%
    19:00 +6°C° 0,2 mm 1 m/s 632 mmHg 93%
    20:00 +4°C° 0 mm 2 m/s 633 mmHg 94%
    21:00 +4°C° 0 mm 2 m/s 633 mmHg 94%
    22:00 +4°C° 0 mm 2 m/s 633 mmHg 94%
    23:00 +4°C° 0 mm 2 m/s 632 mmHg 94%

    Mâine, 1 Aprilie, Sâmbătă

    Timp Temperatura Precipitaţii Vânt Presiune Umiditate
    00:00 +3°C° 0 mm 2 m/s 632 mmHg 94%
    01:00 +3°C° 0 mm 2 m/s 632 mmHg 94%
    02:00 +3°C° 0 mm 2 m/s 631 mmHg 94%
    03:00 +2°C° 0 mm 2 m/s 631 mmHg 93%
    04:00 +2°C° 0 mm 2 m/s 631 mmHg 93%
    05:00 +2°C° 0 mm 2 m/s 631 mmHg 92%
    06:00 +3°C° 0 mm 2 m/s 631 mmHg 90%
    07:00 +3°C° 0 mm 2 m/s 631 mmHg 89%
    08:00 +5°C° 0 mm 2 m/s 631 mmHg 81%
    09:00 +7°C° 0 mm 2 m/s 632 mmHg 72%
    10:00 +9°C° 0 mm 2 m/s 632 mmHg 64%
    11:00 +10°C° 0 mm 2 m/s 632 mmHg 60%
    12:00 +10°C° 0 mm 2 m/s 632 mmHg 57%
    13:00 +12°C° 0 mm 2 m/s 632 mmHg 53%
    14:00 +12°C° 0,4 mm 2 m/s 632 mmHg 58%
    15:00 +10°C° 0,4 mm 2 m/s 632 mmHg 63%
    16:00 +9°C° 0,4 mm 2 m/s 631 mmHg 67%
    17:00 +8°C° 0,6 mm 1 m/s 631 mmHg 76%
    18:00 +6°C° 0,6 mm 1 m/s 630 mmHg 85%
    19:00 +4°C° 0,6 mm 1 m/s 630 mmHg 94%
    20:00 +4°C° 0,5 mm 1 m/s 630 mmHg 95%
    21:00 +4°C° 0,5 mm 1 m/s 631 mmHg 95%
    22:00 +4°C° 0,5 mm 1 m/s 631 mmHg 95%
    23:00 +4°C° 0,1 mm 1 m/s 631 mmHg 95%

    Poimâine, 2 Aprilie, Duminică

    Timp Temperatura Precipitaţii Vânt Presiune Umiditate
    00:00 +4°C° 0,1 mm 1 m/s 631 mmHg 95%
    01:00 +3°C° 0,1 mm 1 m/s 631 mmHg 95%
    02:00 +3°C° 0,1 mm 1 m/s 631 mmHg 95%
    03:00 +3°C° 0,1 mm 1 m/s 631 mmHg 95%
    04:00 +3°C° 0,1 mm 1 m/s 631 mmHg 94%
    05:00 +3°C° 0,1 mm 1 m/s 632 mmHg 92%
    06:00 +4°C° 0,1 mm 1 m/s 632 mmHg 90%
    07:00 +4°C° 0,1 mm 1 m/s 632 mmHg 88%
    08:00 +6°C° 0,1 mm 1 m/s 633 mmHg 81%
    09:00 +7°C° 0,1 mm 1 m/s 633 mmHg 73%
    10:00 +9°C° 0,1 mm 1 m/s 634 mmHg 66%
    11:00 +9°C° 0,1 mm 1 m/s 634 mmHg 66%
    12:00 +10°C° 0,1 mm 1 m/s 634 mmHg 65%
    13:00 +10°C° 0,1 mm 1 m/s 635 mmHg 64%
    14:00 +10°C° 0,2 mm 1 m/s 634 mmHg 67%
    15:00 +9°C° 0,2 mm 1 m/s 634 mmHg 69%
    16:00 +9°C° 0,2 mm 1 m/s 634 mmHg 71%
    17:00 +8°C° 0,1 mm 1 m/s 634 mmHg 79%
    18:00 +6°C° 0,1 mm 1 m/s 634 mmHg 86%
    19:00 +5°C° 0,1 mm 1 m/s 633 mmHg 94%
    20:00 +5°C° 0,1 mm 1 m/s 634 mmHg 94%
    21:00 +3°C° 0,1 mm 0 m/s 634 mmHg 95%
    22:00 +3°C° 0,1 mm 0 m/s 635 mmHg 95%
    23:00 +3°C° 0,1 mm 0 m/s 635 mmHg 95%

    3 Aprilie, Luni

    Timp Temperatura Precipitaţii Vânt Presiune Umiditate
    00:00 +3°C° 0,1 mm 0 m/s 635 mmHg 96%
    01:00 +4°C° 0,1 mm 1 m/s 635 mmHg 96%
    02:00 +4°C° 0,1 mm 1 m/s 635 mmHg 96%
    03:00 +3°C° 0,1 mm 1 m/s 634 mmHg 96%
    04:00 +3°C° 0,1 mm 1 m/s 634 mmHg 97%
    05:00 +3°C° 0,1 mm 1 m/s 635 mmHg 95%
    06:00 +4°C° 0,1 mm 1 m/s 635 mmHg 94%
    07:00 +4°C° 0,1 mm 1 m/s 635 mmHg 93%
    08:00 +5°C° 0,1 mm 1 m/s 636 mmHg 87%
    09:00 +6°C° 0,1 mm 1 m/s 636 mmHg 82%
    10:00 +8°C° 0,1 mm 1 m/s 636 mmHg 76%
    11:00 +8°C° 0,2 mm 1 m/s 636 mmHg 76%
    12:00 +8°C° 0,2 mm 2 m/s 636 mmHg 75%
    13:00 +8°C° 0,2 mm 2 m/s 636 mmHg 75%
    14:00 +8°C° 0,2 mm 2 m/s 636 mmHg 77%
    15:00 +8°C° 0,2 mm 2 m/s 636 mmHg 79%
    16:00 +7°C° 0,2 mm 2 m/s 635 mmHg 81%
    17:00 +6°C° 0,1 mm 2 m/s 635 mmHg 86%
    18:00 +6°C° 0,1 mm 1 m/s 635 mmHg 91%
    19:00 +5°C° 0,1 mm 1 m/s 635 mmHg 96%
    20:00 +4°C° 0,1 mm 1 m/s 635 mmHg 96%
    21:00 +4°C° 0,1 mm 1 m/s 635 mmHg 96%
    22:00 +4°C° 0,1 mm 1 m/s 635 mmHg 97%
    23:00 +3°C° 0,1 mm 1 m/s 635 mmHg 97%

    4 Aprilie, Marţi

    Timp Temperatura Precipitaţii Vânt Presiune Umiditate
    00:00 +3°C° 0,1 mm 1 m/s 635 mmHg 97%
    01:00 +3°C° 0,1 mm 1 m/s 635 mmHg 97%
    02:00 +3°C° 0 mm 1 m/s 635 mmHg 97%
    03:00 +3°C° 0 mm 1 m/s 635 mmHg 97%
    04:00 +3°C° 0 mm 1 m/s 634 mmHg 96%
    05:00 +3°C° 0 mm 1 m/s 635 mmHg 95%
    06:00 +3°C° 0 mm 1 m/s 635 mmHg 94%
    07:00 +3°C° 0 mm 1 m/s 635 mmHg 93%
    08:00 +4°C° 0 mm 1 m/s 635 mmHg 86%
    09:00 +4°C° 0 mm 2 m/s 635 mmHg 78%
    10:00 +5°C° 0 mm 2 m/s 636 mmHg 71%
    11:00 +6°C° 0 mm 2 m/s 636 mmHg 69%
    12:00 +6°C° 0 mm 2 m/s 636 mmHg 66%
    13:00 +7°C° 0 mm 2 m/s 636 mmHg 63%
    14:00 +7°C° 0 mm 2 m/s 636 mmHg 65%
    15:00 +6°C° 0 mm 2 m/s 635 mmHg 67%
    16:00 +6°C° 0 mm 2 m/s 635 mmHg 68%
    17:00 +4°C° 0 mm 2 m/s 635 mmHg 76%
    18:00 +3°C° 0 mm 2 m/s 635 mmHg 84%
    19:00 +2°C° 0 mm 1 m/s 635 mmHg 91%
    20:00 +2°C° 0,1 mm 1 m/s 635 mmHg 92%
    21:00 +2°C° 0,1 mm 1 m/s 635 mmHg 92%
    22:00 +2°C° 0,1 mm 1 m/s 636 mmHg 92%
    23:00 +2°C° 0,1 mm 1 m/s 636 mmHg 93%

    5 Aprilie, Miercuri

    Timp Temperatura Precipitaţii Vânt Presiune Umiditate
    00:00 +2°C° 0,1 mm 1 m/s 636 mmHg 93%
    01:00 +1°C° 0,1 mm 1 m/s 636 mmHg 94%
    02:00 +1°C° 0 mm 1 m/s 635 mmHg 94%
    03:00 +1°C° 0 mm 1 m/s 635 mmHg 94%
    04:00 0°C° 0 mm 1 m/s 635 mmHg 94%
    05:00 +1°C° 0 mm 1 m/s 635 mmHg 92%
    06:00 +1°C° 0 mm 1 m/s 635 mmHg 89%
    07:00 +2°C° 0 mm 1 m/s 636 mmHg 87%
    08:00 +2°C° 0 mm 2 m/s 636 mmHg 79%
    09:00 +3°C° 0 mm 2 m/s 636 mmHg 71%
    10:00 +4°C° 0 mm 2 m/s 637 mmHg 62%
    11:00 +5°C° 0 mm 2 m/s 637 mmHg 61%
    12:00 +6°C° 0 mm 2 m/s 636 mmHg 60%
    13:00 +6°C° 0 mm 2 m/s 636 mmHg 59%
    14:00 +6°C° 0,1 mm 2 m/s 636 mmHg 63%
    15:00 +6°C° 0,1 mm 2 m/s 636 mmHg 67%
    16:00 +5°C° 0,1 mm 2 m/s 636 mmHg 70%
    17:00 +4°C° 0,2 mm 2 m/s 635 mmHg 78%
    18:00 +3°C° 0,2 mm 2 m/s 635 mmHg 85%
    19:00 +3°C° 0,2 mm 1 m/s 635 mmHg 92%
    20:00 +2°C° 0,7 mm 2 m/s 635 mmHg 93%
    21:00 +2°C° 0,7 mm 2 m/s 635 mmHg 94%
    22:00 +2°C° 0,7 mm 2 m/s 636 mmHg 94%
    23:00 +2°C° 0,5 mm 2 m/s 635 mmHg 95%
    Arată mai mult